Flag for France Weather past 2 weeks in Périgueux, France

Now
68 °F

Light rain. Cloudy.


Feels Like: 68 °F
Forecast: 56 / 72 °F
Wind: 7 mph from Southeast

Location: Bergerac Airport

Current Time: Aug 31, 2015 at 10:01:46 PM

Latest Report: Aug 31, 2015 at 9:30 PM


Visibility: N/A

Pressure: 29.86 "Hg

Humidity: 83%

Dew point: 63 °F

Location of PérigueuxLocation

Historic Weather in Périgueux — Graph

°F

Périgueux temperature yesterday

Maximum temperature yesterday: 93 °F (at 4:30 PM)
Minimum temperature yesterday: 57 °F (at 7:00 AM)
Average temperature yesterday: 77 °F

Past Weeks' High & Low Weather Summary

 TemperatureHumidityPressure
High93 °F (Aug 30, 4:30 PM)100% (Aug 17, 6:00 AM)30.21 "Hg (Aug 17, 6:00 AM)
Low50 °F (Aug 20, 6:30 AM)32% (Aug 30, 4:30 PM)29.59 "Hg (Aug 24, 3:30 AM)
Average71 °F69%29.98 "Hg
* Reported Aug 16 9:00 PM — Aug 31 9:00 PM, Périgueux, Weather by CustomWeather, © 2015

Note: Actual official high and low records may vary slightly from our data, if they occured in-between our weather recording intervals... More about our weather records

Advertising

Périgueux weather history for previous 24 hours

 ConditionsComfort  
Time TempWeatherWind HumidityBarometerVisibility
9:00 PM
Mon, Aug 31
68 °FLight rain. Cloudy.13 mph88%29.86 "HgN/A
8:30 PM68 °FThunderstorms. Cloudy.5 mph94%29.95 "Hg4 mi
8:00 PM70 °FThundershowers. Cloudy.23 mph83%29.98 "Hg4 mi
7:30 PM72 °FThunderstorms. Cloudy.22 mph83%29.95 "Hg5 mi
7:00 PM75 °FMild.1 mph69%29.89 "HgN/A
6:30 PM77 °FWarm.7 mph69%29.89 "HgN/A
6:00 PM79 °FWarm.2 mph74%29.89 "HgN/A
5:30 PM81 °FPassing clouds.7 mph70%29.89 "HgN/A
5:00 PM79 °FPassing clouds.3 mph70%29.89 "HgN/A
4:30 PM81 °FPassing clouds.3 mph70%29.92 "HgN/A
4:00 PM79 °FBroken clouds.2 mph79%29.92 "HgN/A
3:30 PM79 °FWarm.6 mph74%29.92 "HgN/A
3:00 PM79 °FPassing clouds.5 mph74%29.95 "HgN/A
2:30 PM77 °FPassing clouds.3 mph79%29.95 "HgN/A
2:00 PM77 °FSunny.3 mph79%29.95 "Hg10 mi
1:30 PM75 °FLight rain. Broken clouds.6 mph78%29.95 "HgN/A
1:00 PM77 °FLight rain. Broken clouds.No wind74%29.95 "HgN/A
12:30 PM77 °FMostly cloudy.10 mph74%29.95 "HgN/A
12:00 PM77 °FBroken clouds.3 mph79%29.95 "Hg6 mi
11:30 AM77 °FWarm.5 mph74%29.95 "HgN/A
11:00 AM77 °FPassing clouds.7 mph69%29.95 "HgN/A
10:30 AM77 °FPassing clouds.5 mph69%29.95 "HgN/A
10:00 AM77 °FWarm.5 mph65%29.92 "HgN/A
9:30 AM75 °FSunny.13 mph69%29.92 "Hg10 mi
9:00 AM72 °FPassing clouds.3 mph73%29.92 "HgN/A
8:30 AM68 °FPassing clouds.6 mph78%29.95 "HgN/A
8:00 AM66 °FClear.6 mph83%29.95 "Hg10 mi
7:30 AM66 °FClear.5 mph78%29.92 "Hg10 mi
7:00 AM66 °FClear.2 mph73%29.92 "Hg10 mi
6:30 AM66 °FPassing clouds.5 mph73%29.92 "HgN/A
6:00 AM66 °FPassing clouds.5 mph73%29.89 "HgN/A
5:30 AM66 °FClear.5 mph73%29.89 "Hg10 mi
5:00 AM68 °FClear.5 mph69%29.89 "Hg10 mi
4:30 AM68 °FClear.7 mph69%29.92 "Hg10 mi
4:00 AM66 °FClear.5 mph73%29.92 "Hg10 mi
3:30 AM68 °FClear.1 mph69%29.95 "Hg10 mi
3:00 AM68 °FClear.3 mph69%29.95 "Hg10 mi
2:30 AM72 °FClear.5 mph57%29.92 "Hg10 mi
2:00 AM73 °FPassing clouds.5 mph57%29.92 "HgN/A
1:30 AM75 °FPassing clouds.7 mph54%29.92 "HgN/A
1:00 AM75 °FClear.6 mph50%29.92 "Hg10 mi
12:30 AM77 °FPassing clouds.6 mph51%29.92 "HgN/A
12:00 AM75 °FPassing clouds.8 mph54%29.92 "HgN/A
11:30 PM
Sun, Aug 30
77 °FPassing clouds.3 mph51%29.92 "HgN/A
11:00 PM79 °FClear.7 mph48%29.92 "Hg10 mi
10:30 PM77 °FClear.6 mph54%29.92 "Hg10 mi
10:00 PM79 °FPassing clouds.5 mph51%29.92 "HgN/A
Weather by CustomWeather, © 2015

See weather overviewHow to use our weather pages